Tracking 30415 objects as of 15-May-2025
HD Live streaming from Space Station
objects crossing your sky now

IRIDIUM 36

Track IRIDIUM 36 now!
10-day predictions
IRIDIUM 36 is classified as:


NORAD ID: 24967
Int'l Code: 1997-056C
Perigee: 771.8 km
Apogee: 775.4 km
Inclination: 86.4 °
Period: 100.2 minutes
Semi major axis: 7144 km
RCS: 3.602 m2 (large)
Launch date: September 27, 1997
Source: United States (US)
Launch site: AIR FORCE WESTERN TEST RANGE (AFWTR)
Your satellite tracking list
Your tracking list is empty




NASA's NSSDC Master Catalog

Two Line Element Set (TLE):
1 24967U 97056C   25134.66582171  .00000387  00000-0  12252-3 0  9999
2 24967  86.4012 187.0682 0002546  97.1776 262.9711 14.37584229447409
Source of the keplerian elements: AFSPC